Oakes, ND

4:52 AM CST on November 21, 2019 (GMT -0600)
Oakes

Weather History for K2D5 - September, 2019

Change the Weather History Date:

Thursday, September 12, 2019

  Actual Average (KP67) Record (KP67)
Temperature  
Mean Temperature 54 °F -  
Max Temperature 57 °F 73 °F 80 °F (1997)
Min Temperature 50 °F 48 °F 46 °F (1996)
Degree Days  
Heating Degree Days 12    
Growing Degree Days 4 (Base 50)    
Moisture  
Dew Point 53 °F    
Average Humidity 100    
Maximum Humidity 100    
Minimum Humidity 94    
Precipitation  
Precipitation 0.00 in - - ()
Sea Level Pressure  
Sea Level Pressure 29.92 in    
Wind  
Wind Speed 12 mph (NNE)    
Max Wind Speed 26 mph    
Max Gust Speed 34 mph    
Visibility 6 miles    
Events Thunderstorm    
Averages and records for this station are not official NWS values.
T = Trace of Precipitation, MM = Missing Value Source: NWS Daily Summary

Daily Weather History Graph

Daily Weather History Graph

Search for Another Location

Airport or City:

Astronomy

Sep. 12, 2019 Rise Set
Actual Time 7:06 AM CDT 7:49 PM CDT
Civil Twilight 6:36 AM CDT 8:20 PM CDT
Nautical Twilight 6:00 AM CDT 8:56 PM CDT
Astronomical Twilight 5:22 AM CDT 9:33 PM CDT
Moon 7:42 PM CDT (9/12) 5:18 AM CDT (9/12)
Length of Visible Light 13h 44m
Length of Day
12h 43m
Waxing Gibbous, 98% of the Moon is Illuminated
Sep 12
Waxing Gibbous
Sep 13
Full
Sep 21
Last Quarter
Sep 28
New
Oct 5
First Quarter

Hourly Weather History & Observations

Time (CDT) Temp. Dew Point Humidity Pressure Visibility Wind Dir Wind Speed Gust Speed Precip Events Conditions
12:15 AM 57.2 °F 57.2 °F 100% 30.12 in 9.0 mi ENE 6.9 mph - N/A Thunderstorm Overcast
12:35 AM 57.2 °F 57.2 °F 100% 30.12 in 2.0 mi ENE 5.8 mph - N/A Thunderstorm Overcast
12:55 AM 57.2 °F 57.2 °F 100% 30.12 in 1.2 mi ENE 8.1 mph - N/A Thunderstorm Overcast
1:15 AM - - N/A% 30.09 in 0.8 mi ENE 11.5 mph - N/A   Overcast
1:35 AM 55.4 °F 55.4 °F 100% 30.06 in 1.2 mi ENE 13.8 mph 20.7 mph N/A   Overcast
1:55 AM 55.4 °F 55.4 °F 100% 30.03 in 2.0 mi NE 13.8 mph 20.7 mph N/A   Overcast
2:35 AM 55.4 °F 55.4 °F 100% 30.00 in 2.5 mi East 17.3 mph 27.6 mph N/A   Overcast
2:55 AM 55.4 °F 55.4 °F 100% 30.00 in 2.0 mi ENE 18.4 mph 28.8 mph N/A   Overcast
3:15 AM - - N/A% 30.00 in 1.5 mi East 17.3 mph 24.2 mph N/A   Overcast
3:35 AM 53.6 °F 53.6 °F 100% 30.00 in 1.2 mi East 19.6 mph 27.6 mph N/A   Overcast
3:55 AM 53.6 °F 53.6 °F 100% 30.00 in 2.0 mi East 21.9 mph 29.9 mph N/A   Overcast
4:15 AM 53.6 °F 53.6 °F 100% 30.00 in 2.0 mi East 17.3 mph 23.0 mph N/A   Overcast
4:35 AM 53.6 °F 53.6 °F 100% 30.00 in 2.5 mi East 21.9 mph - N/A   Overcast
4:55 AM 51.8 °F 51.8 °F 100% 30.00 in 2.0 mi East 17.3 mph 24.2 mph N/A   Overcast
5:15 AM 51.8 °F 51.8 °F 100% 29.98 in 2.5 mi East 19.6 mph - N/A   Overcast
5:35 AM 51.8 °F 51.8 °F 100% 29.96 in 2.5 mi East 24.2 mph 31.1 mph N/A   Overcast
5:55 AM 50.0 °F 50.0 °F 100% 29.94 in 5.0 mi ENE 26.5 mph 33.4 mph N/A   Overcast
6:15 AM 50.0 °F 50.0 °F 100% 29.93 in 7.0 mi ENE 24.2 mph 34.5 mph N/A   Overcast
6:35 AM 50.0 °F 50.0 °F 100% 29.92 in 10.0 mi ENE 25.3 mph 33.4 mph N/A   Overcast
6:55 AM 50.0 °F 50.0 °F 100% 29.94 in 10.0 mi East 23.0 mph 28.8 mph N/A   Overcast
7:15 AM 50.0 °F 50.0 °F 100% 29.94 in 10.0 mi ENE 19.6 mph 26.5 mph N/A   Overcast
7:35 AM 50.0 °F 50.0 °F 100% 29.93 in 10.0 mi ENE 17.3 mph 24.2 mph N/A   Overcast
7:55 AM 50.0 °F 50.0 °F 100% 29.94 in 10.0 mi ENE 13.8 mph 20.7 mph N/A   Overcast
8:15 AM 50.0 °F 50.0 °F 100% 29.95 in 10.0 mi ENE 8.1 mph - N/A   Overcast
8:35 AM 50.0 °F 50.0 °F 100% 29.95 in 4.0 mi NE 9.2 mph - N/A   Overcast
8:55 AM 50.0 °F 50.0 °F 100% 29.94 in 2.0 mi NE 10.4 mph - N/A   Overcast
9:15 AM 50.0 °F 50.0 °F 100% 29.94 in 1.5 mi NE 10.4 mph 16.1 mph N/A   Overcast
9:35 AM 50.0 °F 50.0 °F 100% 29.93 in 1.8 mi NE 12.7 mph - N/A   Overcast
9:55 AM 50.0 °F 50.0 °F 100% 29.93 in 1.8 mi NE 10.4 mph 17.3 mph N/A   Overcast
10:15 AM 50.0 °F 50.0 °F 100% 29.92 in 2.5 mi NE 9.2 mph - N/A   Overcast
10:35 AM 51.8 °F 51.8 °F 100% 29.91 in 1.5 mi NE 11.5 mph - N/A   Mostly Cloudy
10:55 AM 51.8 °F 51.8 °F 100% 29.93 in 1.8 mi NE 9.2 mph 16.1 mph N/A   Mostly Cloudy
11:15 AM 51.8 °F 51.8 °F 100% 29.92 in 1.2 mi NNE 9.2 mph - N/A   Overcast
11:35 AM 51.8 °F 51.8 °F 100% 29.92 in 1.8 mi NE 8.1 mph - N/A   Mostly Cloudy
11:55 AM 51.8 °F 51.8 °F 100% 29.92 in 1.5 mi NNE 8.1 mph - N/A   Scattered Clouds
12:15 PM 53.6 °F 53.6 °F 100% 29.90 in 2.5 mi NE 11.5 mph - N/A   Mostly Cloudy
12:35 PM 53.6 °F 53.6 °F 100% 29.88 in 5.0 mi NNE 15.0 mph - N/A   Mostly Cloudy
12:55 PM 53.6 °F 53.6 °F 100% 29.88 in 8.0 mi NE 12.7 mph - N/A   Overcast
1:15 PM - - N/A% 29.87 in 9.0 mi NNE 11.5 mph 18.4 mph N/A   Overcast
1:35 PM 55.4 °F 55.4 °F 100% 29.86 in 8.0 mi NNE 13.8 mph - N/A   Overcast
1:55 PM 55.4 °F 55.4 °F 100% 29.85 in 10.0 mi NE 11.5 mph - N/A   Overcast
2:15 PM 55.4 °F 55.4 °F 100% 29.86 in 9.0 mi NE 9.2 mph - N/A   Overcast
2:35 PM 57.2 °F 55.4 °F 94% 29.86 in 10.0 mi NE 8.1 mph - N/A   Overcast
2:55 PM 55.4 °F 55.4 °F 100% 29.85 in 6.0 mi NNE 8.1 mph - N/A   Overcast
3:15 PM 55.4 °F 55.4 °F 100% 29.85 in 9.0 mi NNE 5.8 mph - N/A   Overcast
3:35 PM 55.4 °F 55.4 °F 100% 29.84 in 4.0 mi North 8.1 mph - N/A   Overcast
3:55 PM 55.4 °F 55.4 °F 100% 29.82 in 3.0 mi NNE 9.2 mph - N/A   Mostly Cloudy
4:15 PM 55.4 °F 55.4 °F 100% 29.83 in 6.0 mi NNE 9.2 mph - N/A   Mostly Cloudy
4:55 PM 55.4 °F 55.4 °F 100% 29.83 in 2.0 mi North 4.6 mph - N/A   Scattered Clouds
5:15 PM 55.4 °F 55.4 °F 100% 29.83 in 1.5 mi NW 5.8 mph - N/A Thunderstorm Mostly Cloudy
5:35 PM 55.4 °F 55.4 °F 100% 29.83 in 10.0 mi NW 4.6 mph - N/A   Overcast
5:55 PM 55.4 °F 55.4 °F 100% 29.83 in 10.0 mi WNW 4.6 mph - N/A   Overcast
6:15 PM 55.4 °F 55.4 °F 100% 29.83 in 7.0 mi WNW 5.8 mph - N/A   Overcast
6:35 PM 55.4 °F 55.4 °F 100% 29.85 in 5.0 mi WNW 6.9 mph - N/A   Mostly Cloudy
6:55 PM 55.4 °F 55.4 °F 100% 29.86 in 9.0 mi West 8.1 mph - N/A   Mostly Cloudy
7:15 PM 55.4 °F 55.4 °F 100% 29.87 in 10.0 mi WNW 6.9 mph - N/A   Overcast
7:35 PM 53.6 °F 53.6 °F 100% 29.87 in 3.0 mi West 10.4 mph - N/A   Overcast
7:55 PM 53.6 °F 53.6 °F 100% 29.87 in 1.5 mi WNW 10.4 mph - N/A   Overcast
8:15 PM 53.6 °F 53.6 °F 100% 29.87 in 10.0 mi NW 8.1 mph - N/A   Overcast
8:35 PM 53.6 °F 53.6 °F 100% 29.86 in 10.0 mi NW 9.2 mph - N/A   Overcast
8:55 PM 53.6 °F 53.6 °F 100% 29.86 in 10.0 mi WNW 8.1 mph - N/A   Overcast
9:15 PM 53.6 °F 53.6 °F 100% 29.86 in 10.0 mi WNW 9.2 mph - N/A   Overcast
9:35 PM 51.8 °F 51.8 °F 100% 29.86 in 10.0 mi WNW 9.2 mph - N/A   Overcast
9:55 PM 51.8 °F 51.8 °F 100% 29.86 in 10.0 mi West 10.4 mph - N/A   Overcast
10:15 PM 51.8 °F 51.8 °F 100% 29.86 in 8.0 mi WNW 11.5 mph - N/A   Overcast
10:35 PM 51.8 °F 51.8 °F 100% 29.86 in 10.0 mi WNW 6.9 mph - N/A   Overcast
10:55 PM 51.8 °F 51.8 °F 100% 29.86 in 6.0 mi WNW 13.8 mph - N/A   Overcast
11:15 PM 51.8 °F 51.8 °F 100% 29.86 in 10.0 mi WNW 12.7 mph - N/A   Overcast
11:35 PM 51.8 °F 51.8 °F 100% 29.86 in 1.2 mi NW 9.2 mph 16.1 mph N/A   Overcast
11:55 PM 50.0 °F 50.0 °F 100% 29.87 in 9.0 mi WNW 11.5 mph 19.6 mph N/A   Overcast